User: anonymous   Login
Location: Sungai Ketit
(2.6833°N, 113.2333°E)
Time: 04:21:38
(UTC+00:00)
Language:

Palapa 6 Rocket - Orbit

View from above orbital plane
View from above orbital plane
View from above satellite
View from above satellite

Ground track
Ground track

The orbit data is extracted from the following two-line orbital elements,

1 20571U 90034B   24194.45165554  .00005206  00000-0  70894-3 0  9990
2 20571  22.7472 210.4189 0486862 302.2578  53.1599 14.17440435758204
Epoch (UTC): 12 July 2024 10:50:23
Eccentricity: 0.0486862
inclination: 22.7472°
perigee height: 483 km
apogee height: 1185 km
right ascension of ascending node: 210.4189°
argument of perigee: 302.2578°
revolutions per day: 14.17440435
mean anomaly at epoch: 53.1599°
orbit number at epoch: 75820

The dashed part of the orbit path shows where the satellite is in the earth's shadow,  

DLR